Regional Weather Roundup
Issued by NWS

Home | Current Version | Previous Version | Text Only | Print | Product List | Glossary Off
Versions: 1 2 3 4 5 6 7 8 9 10 11 12 13 14 15 16 17 18 19 20 21 22 23 24 25 26 27

000
ASUS45 KTFX 292310
RWRMT
MONTANA REGIONAL WEATHER ROUNDUP
NATIONAL WEATHER SERVICE GREAT FALLS MT
500 PM MDT THU SEP 29 2016

NOTE: "FAIR" INDICATES FEW OR NO CLOUDS BELOW 12000 FEET WITH NO
SIGNIFICANT WEATHER AND/OR OBSTRUCTIONS TO VISIBILITY.

MTZ001>007-043-300000-
WEST OF THE DIVIDE

CITY           SKY/WX    TMP DP  RH WIND       PRES   REMARKS
KALISPELL      PTSUNNY   73  47  39 N5        29.97F
MISSOULA       MOSUNNY   79  43  27 NE7       29.96F
BUTTE          CLOUDY    77  38  24 NE5       30.11F
MULLAN PASS    SUNNY     68  39  34 VRB5      30.12F
ANACONDA         N/A     77  34  20 N6        30.06S
DEER LODGE       N/A     75  37  25 W16G24    30.06F
EUREKA           N/A     70  45  40 CALM      29.99F
HAMILTON         N/A     75  45  33 CALM      30.00S
LIBBY            N/A     73  48  40 N3        29.94F
PLAINS           N/A     79  47  32 CALM      29.95F
RONAN            N/A     72  46  39 NW6       30.03F
THOMPSON FALLS   N/A     78  50  37 NE1       29.97F
$$

MTZ008-052>055-300000-
SOUTHWEST MONTANA

CITY           SKY/WX    TMP DP  RH WIND       PRES   REMARKS
BOZEMAN        CLOUDY    72  50  45 S7        30.08F
DILLON         CLOUDY    74  42  31 W5        30.09F
W YELLOWSTONE  CLOUDY    63  41  45 S9        30.28S
ENNIS          SUNNY     75  43  31 S21       30.18F
THREE FORKS      N/A     77  16  10 S8        30.05F
TWIN BRIDGES     N/A     78  44  29 S3        30.07F
$$

MTZ009-010-012-014-046-048-049-054-300000-
EAST SLOPES AND CENTRAL MONTANA

CITY           SKY/WX    TMP DP  RH WIND       PRES   REMARKS
CUT BANK       SUNNY     71  47  42 NW3       30.06S
GREAT FALLS    SUNNY     75  49  39 E10       30.01F
MALMSTROM AFB  SUNNY     74  51  44 NE12      30.01F
HELENA         CLOUDY    74  49  41 VRB5      30.01F
AUGUSTA          N/A     74  46  36 E7        30.05S
BOWMANS CRNR     N/A     76  42  29 S8        30.02S
CHOTEAU          N/A     75  48  38 N8        30.05S
CONRAD           N/A     75  53  46 N3        30.07R
FAIRFIELD        N/A     77  45  31 E7        30.01F
POWER            N/A     74  48  38 E10       30.02S
RAYNESFORD       N/A     78  47  33 E5        30.03F
$$

MTZ011-013-016-021-045-047-050-051-300000-
NORTH CENTRAL MONTANA

CITY           SKY/WX    TMP DP  RH WIND       PRES   REMARKS
HAVRE          SUNNY     75  53  46 E7        30.00S
LEWISTOWN      CLOUDY    74  51  44 E8        30.05S
N BAR RANCH    PTSUNNY   75  48  38 CALM      30.10S
CHINOOK          N/A     75  55  50 NE5       29.99F
DENTON         MOCLDY    71  56  57 NE8       29.99F
GEYSER           N/A     74  46  36 E7        30.05S
GRASS RANGE      N/A     74  55  51 SE3       30.01F
JUDITH GAP       N/A     72  51  47 SE9       30.09S
ROY              N/A     73  58  60 MISG      30.02F
STANFORD         N/A     71  55  56 NE9       30.06S
WINIFRED         N/A     74  55  51 MISG      30.03F
$$

MTZ017>020-022>027-061-062-300000-
NORTHEAST MONTANA

CITY           SKY/WX    TMP DP  RH WIND       PRES   REMARKS
GLASGOW        SUNNY     78  45  30 SE20      30.01F
JORDAN           N/A     80  47  31 SE8       30.02F
SIDNEY         SUNNY     78  50  37 SE13G21   30.09S
WOLF POINT     MOSUNNY   82  47  29 E8        30.04S
PLENTYWOOD       N/A     75  46  35 SE17      30.10S
POPLAR           N/A     81  48  32 SE16      30.06R
SCOBEY           N/A     79  45  29 E16       30.06F
$$

MTZ028>42-056>058-300000-
SOUTHCENTRAL AND SOUTHEAST MONTANA

CITY           SKY/WX    TMP DP  RH WIND       PRES   REMARKS
BAKER          SUNNY     77  45  32 SE23      30.12F
BILLINGS       MOSUNNY   76  49  38 NE6       30.05F
LIVINGSTON     CLOUDY    71  45  39 SW9       30.10R
MILES CITY     MOSUNNY   80  49  33 SE6       30.03F
BIG TIMBER     SUNNY     73  48  40 E6        30.11S
FORSYTH          N/A     79  52  38 CALM      30.02F
HARLOWTON      MOCLDY    73  49  42 N3        30.07F
LAUREL           N/A     76  49  38 MISG      30.04F
ROUNDUP          N/A     81  45  28 SE9       29.95S
$$

REGIONAL REPORTS...DAKOTAS

CITY           SKY/WX    TMP DP  RH WIND       PRES   REMARKS
WILLISTON      SUNNY     75  46  35 SE14G24   30.12F
MINOT          SUNNY     71  45  39 SE12      30.23S
DICKINSON      SUNNY     72  43  35 SE17G25   30.16S
BEACH            N/A     75  43  31 SE22G29   30.15S
CROSBY           N/A     72  45  37 SE16G23   30.17S
WATFORD CITY     N/A     73  45  35 SE18G25   30.15S
BISMARCK       SUNNY     69  46  43 SE16      30.26S
GRAND FORKS    MOSUNNY   66  45  46 S12       30.37F
FARGO          SUNNY     66  44  45 SE12      30.38F
BUFFALO SD       N/A     79  44  28 SE26G35   30.08S
RAPID CITY     SUNNY     81  44  27 S17G25    30.17F
$$

REGIONAL REPORTS...WYOMING/IDAHO/WASHINGTON

CITY           SKY/WX    TMP DP  RH WIND       PRES   REMARKS
GILLETTE       CLOUDY    77  46  33 SW20      30.15F
SHERIDAN       MOSUNNY   69  56  62 NE3       30.09F
BUFFALO WY     CLOUDY    75  41  29 SW17G25   30.16F
CODY           CLOUDY    77  41  27 SW6       30.15S
YELLOWSTONE LA   N/A     57  41  55 VRB3      30.37S
IDAHO FALLS    PTSUNNY   73  45  36 SW12      30.16F
SALMON         CLOUDY    75  43  31 S14       30.00S
BOISE          SUNNY     90  33  13 SW7       29.95F
SPOKANE        PTSUNNY   79  46  31 NE5       29.93F
$$

REGIONAL REPORTS...ALBERTA

CITY           SKY/WX    TMP DP  RH WIND       PRES   REMARKS
EDMONTON       PTSUNNY   59  39  47 E10       30.12F
CALGARY        PTSUNNY   59  43  55 E6        30.07F
LETHBRIDGE     MOSUNNY   63  48  59 NE6       30.06F
MEDICINE HAT   MOSUNNY   70  52  52 N10       30.03S
WATERTON GATE    N/A     61  46  59 E7          N/A
CARDSTON         N/A     61  45  55 NW2         N/A
MILK RIVER       N/A     66  48  52 N14         N/A
ONEFOUR          N/A     75  48  38 E5          N/A
$$

REGIONAL REPORTS...SASKATCHEWAN

CITY           SKY/WX    TMP DP  RH WIND       PRES   REMARKS
SWIFT CURRENT  SUNNY     73  52  46 E6        30.04S
REGINA         MOSUNNY   77  39  25 SE22G30   30.08S
SASKATOON      PTSUNNY   59  50  72 N13G18    30.13R
CYPRESS HILLS    N/A     70  52  52 NE5         N/A
VAL MARIE        N/A     79  45  29 S12         N/A
ROCKGLEN         N/A     77  43  29 SE16G23     N/A
ASSINIBOIA       N/A     64  39  39 E8          N/A
$$




USA.gov is the U.S. government's official web portal to all federal, state and local government web resources and services.